Regional Weather Roundup
Issued by NWS Little Rock, AR

Home | Current Version | Previous Version | Graphics & Text | Print | Product List | Glossary On
Versions: 1 2 3 4 5 6 7 8 9 10 11 12 13 14 15 16 17 18 19 20 21 22 23 24 25 26 27 28 29 30 31 32 33 34 35 36 37 38 39 40 41 42 43 44 45 46 47 48 49 50
000
ASUS44 KLZK 050505
RWRLZK

WEATHER ROUNDUP FOR ARKANSAS
NATIONAL WEATHER SERVICE LITTLE ROCK AR
1100 PM CST WED MAR 04 2015

NOTE: "FAIR" INDICATES FEW OR NO CLOUDS BELOW 12,000 FEET WITH NO
SIGNIFICANT WEATHER AND/OR OBSTRUCTIONS TO VISIBILITY.

ARZ001-003-010-029-050600-
NORTHWEST ARKANSAS

CITY           SKY/WX    TMP DP  RH WIND       PRES   REMARKS
FAYETTEVILLE   CLOUDY    20  14  77 NE6G17    30.33S WCI  12
FORT SMITH     CLOUDY    26  19  74 N12       30.35R WCI  16
HARRISON       FLURRIES  19  15  84 N9        30.31F WCI   8
BENTONVILLE    CLOUDY    21  16  79 N8        30.34F WCI  12
ROGERS         CLOUDY    20  16  84 N7        30.34S WCI  11
SILOAM SPGS    CLOUDY    21  12  68 NE9       30.36S WCI  11
HIGHFILL       CLOUDY    21  15  78 N10       30.33S WCI  10
$$

ARZ004-005-016-050600-
NORTH CENTRAL ARKANSAS

CITY           SKY/WX    TMP DP  RH WIND       PRES   REMARKS
BATESVILLE     CLOUDY    21  16  79 N9        30.33S WCI  11
FLIPPIN        MOCLDY    21  12  68 CALM      30.34F
MTN HOME       CLOUDY    20  14  77 CALM      30.34R
$$

ARZ040-041-050600-
WEST CENTRAL ARKANSAS

CITY           SKY/WX    TMP DP  RH WIND       PRES   REMARKS
MENA           CLOUDY    30  27  86 CALM      30.23R
MOUNT IDA      MIX PCPN  28  24  85 MISG      30.22S
$$

ARZ009-017-025-026-028-050600-
NORTHEAST ARKANSAS

CITY           SKY/WX    TMP DP  RH WIND       PRES   REMARKS
CORNING        LGT SNOW  21  18  86 N15       30.36R VSB 3/4 WCI   8
JONESBORO      FOG       20  18  92 N13       30.32R VSB 1/2 WCI   7
NEWPORT        LGT SNOW  22  20  92 N21       30.33R VSB 1   WCI   7
WALNUT RIDGE   CLOUDY    19  16  86 N13       30.35R VSB 3/4 WCI   7
BLYTHEVILLE    FOG       20  19  96 N29G36    30.31R VSB 1/2 WCI   1
$$

ARZ022-023-033-042-044-050600-
CENTRAL ARKANSAS

CITY           SKY/WX    TMP DP  RH WIND       PRES   REMARKS
LITTLE ROCK    SLEET     27  21  80 N17G28    30.29R FOG     WCI  14
N LITTLE ROCK  CLOUDY    24  23  98 N14G22      N/A  WCI  11
JACKSONVILLE   FLURRIES  25  21  86 N10G18    30.29R WCI  15
SEARCY         LGT SNOW  23  21  92 N15G21    30.32R FOG     WCI  10
HOT SPRINGS    MIX PCPN  27  22  81 NE9G22    30.25R WCI  18
RUSSELLVILLE   LGT SNOW  24  18  77 NE10      30.32R WCI  14
CLINTON        LGT SNOW  23  18  80 CALM      30.35R
$$

ARZ036-050600-
EAST ARKANSAS

CITY           SKY/WX    TMP DP  RH WIND       PRES   REMARKS
$$

ARZ050-053-066-070-073-050600-
SOUTHWEST ARKANSAS

CITY           SKY/WX    TMP DP  RH WIND       PRES   REMARKS
ARKADELPHIA    MIX PCPN  30  30 100 NE13      30.23R FOG     WCI  20
CAMDEN         HVY RAIN  32  28  86 MISG      30.21R VSB 1
TEXARKANA      MIX PCPN  32  32 100 NE21G35   30.19R FOG     WCI  20
EL DORADO      RAIN      33  31  92 N9        30.18R FOG     WCI  25
DE QUEEN       CLOUDY    33  28  81 N6        30.24R WCI  28
$$

ARZ056-057-069-050600-
SOUTHEAST ARKANSAS

CITY           SKY/WX    TMP DP  RH WIND       PRES   REMARKS
PINE BLUFF     MIX PCPN  27  25  92 N21G35    30.20F FOG     WCI  13
STUTTGART      CLOUDY    27  21  80 N28G35    30.23R WCI  11
MONTICELLO     MIX PCPN  32  28  85 NE13G29   30.15R FOG     WCI  22

$$




USA.gov is the U.S. government's official web portal to all federal, state and local government web resources and services.